Location: ??
(35.5653°N, 139.6194°E)
Time: 22:12:35
(UTC+00:00)

Delta 2 Rocket - Visible Passes

Search period start: 21 February 2020 00:00
Search period end: 02 March 2020 00:00
Orbit: 416 x 809 km, 35.6° (Epoch: 21 February)

Date Brightness Start Highest point End Pass type
(mag) Time Alt. Az. Time Alt. Az. Time Alt. Az.
25 Feb 5.5 20:13:15 10° SSW 20:15:33 16° SSE 20:17:46 10° ESE visible
26 Feb 4.6 20:26:27 10° SW 20:29:40 28° SSE 20:32:40 10° E visible
27 Feb 5.8 19:02:20 13° SE 19:02:20 13° SE 19:03:49 10° ESE visible
27 Feb 3.8 20:40:14 10° WSW 20:43:49 46° SSE 20:47:08 10° E visible
28 Feb 4.9 19:16:03 24° SSE 19:16:03 24° SSE 19:19:01 10° E visible
29 Feb 4.0 19:29:39 37° S 19:30:09 39° SSE 19:33:36 10° E visible
01 Mar 3.4 19:43:11 40° SW 19:44:20 60° SSE 19:47:57 10° E visible
